Location: Ku?niki
(51.4449°N, 17.8974°E)
Time: 07:33:08
(UTC+00:00)

DX 1 - Pass Details

Date: 30 June 2022
Orbit: 617 x 629 km, 98.4° (Epoch: 07 August)

Event Time Altitude Azimuth Distance (km) Brightness Sun altitude
Rises 20:39:18 0° 11° (N) 2,935 ? -9.9°
Reaches altitude 10° 20:41:33 10° 7° (N) 2,021 ? -10.1°
Maximum altitude 20:45:49 53° 291° (WNW) 777 ? -10.4°
Drops below altitude 10° 20:50:04 10° 215° (SW) 2,001 ? -10.7°
Sets 20:52:17 0° 210° (SSW) 2,902 ? -10.9°
